Weather History for Veracruz Airport, Mexico

Change the Weather History Date:

Thursday, May 23, 2013

  Actual Average Record
Temperature  
Mean Temperature 84 °F -  
Max Temperature 91 °F 89 °F 104 °F (2008)
Min Temperature 78 °F 74 °F 68 °F (2012)
Cooling Degree Days 20    
Growing Degree Days 34 (Base 50)    
Moisture  
Dew Point 74 °F    
Average Humidity 72    
Maximum Humidity 89    
Minimum Humidity 46    
Precipitation  
Precipitation 0.00 in - - ()
Sea Level Pressure  
Sea Level Pressure 29.85 in    
Wind  
Wind Speed 6 mph ()    
Max Wind Speed 14 mph    
Max Gust Speed -    
Visibility 5.1 miles    
Events      
Averages and records for this station are not official NWS values.
T = Trace of Precipitation, MM = Missing Value Source: Averaged Metar Reports

Daily Weather History Graph

Daily Weather History Graph

Search for Another Location

Airport:

Trip Planner

Search our weather history database for the weather conditions in past years. The results will help you decide how hot, cold, wet, or windy it might be!

Date:

Astronomy

May. 23, 2013 Rise Set
Actual Time 6:47 AM CDT 7:55 PM CDT
Civil Twilight 6:23 AM CDT 8:19 PM CDT
Nautical Twilight 5:55 AM CDT 8:47 PM CDT
Astronomical Twilight 5:26 AM CDT 9:16 PM CDT
Moon 6:38 PM CDT (5/23) 5:20 AM CDT (5/23)
Length of Visible Light 13h 55m
Length of Day
13h 08m
Waxing Gibbous, 97% of the Moon is Illuminated
May 23
Waxing Gibbous
May 24
Full
May 31
Last Quarter
Jun 8
New
Jun 16
First Quarter

Hourly Weather History & Observations

Time (CDT) Temp. Heat Index Dew Point Humidity Pressure Visibility Wind Dir Wind Speed Gust Speed Precip Events Conditions
5:10 AM 78.8 °F - 75.2 °F 89% 29.83 in 5.0 mi Calm Calm - N/A   Clear
5:42 AM 78.8 °F - 75.2 °F 89% 29.84 in 5.0 mi North 4.6 mph - N/A   Clear
6:50 AM 78.8 °F - 75.2 °F 89% 29.83 in 5.0 mi North 4.6 mph - N/A   Mostly Cloudy
7:47 AM 80.6 °F 87.1 °F 77.0 °F 89% 29.86 in 4.0 mi North 4.6 mph - N/A   Mostly Cloudy
8:50 AM 82.4 °F 89.5 °F 75.2 °F 79% 29.88 in 4.0 mi NE 6.9 mph - N/A   Mostly Cloudy
9:44 AM 84.2 °F 92.3 °F 75.2 °F 74% 29.86 in 4.0 mi East 4.6 mph - N/A   Mostly Cloudy
10:50 AM 87.8 °F 95.6 °F 73.4 °F 62% 29.88 in 5.0 mi East 4.6 mph - N/A   Mostly Cloudy
11:45 AM 87.8 °F 95.6 °F 73.4 °F 62% 29.89 in 5.0 mi NE 11.5 mph - N/A   Mostly Cloudy
12:44 PM 91.4 °F 98.4 °F 71.6 °F 52% 29.85 in 5.0 mi East 9.2 mph - N/A   Mostly Cloudy
1:42 PM 89.6 °F 96.2 °F 71.6 °F 55% 29.87 in 5.0 mi ENE 9.2 mph - N/A   Mostly Cloudy
2:43 PM 91.4 °F 95.4 °F 68.0 °F 46% 29.85 in 5.0 mi East 10.4 mph - N/A   Mostly Cloudy
3:46 PM 89.6 °F 96.2 °F 71.6 °F 55% 29.80 in 5.0 mi ENE 11.5 mph - N/A   Mostly Cloudy
4:50 PM 91.4 °F 98.4 °F 71.6 °F 52% 29.80 in 5.0 mi East 11.5 mph - N/A   Scattered Clouds
5:46 PM 87.8 °F 95.6 °F 73.4 °F 62% 29.80 in 5.0 mi ENE 13.8 mph - N/A   Scattered Clouds
6:44 PM 86.0 °F 93.4 °F 73.4 °F 66% 29.78 in 5.0 mi ENE 11.5 mph - N/A   Scattered Clouds
7:44 PM 84.2 °F 92.3 °F 75.2 °F 74% 29.81 in 5.0 mi ENE 9.2 mph - N/A   Mostly Cloudy
8:47 PM 84.2 °F 94.1 °F 77.0 °F 79% 29.86 in 6.0 mi ENE 5.8 mph - N/A   Mostly Cloudy
9:49 PM 82.4 °F 90.9 °F 77.0 °F 84% 29.85 in 6.0 mi NE 6.9 mph - N/A   Mostly Cloudy
10:48 PM 82.4 °F 90.9 °F 77.0 °F 84% 29.89 in 6.0 mi ENE 5.8 mph - N/A   Mostly Cloudy
11:44 PM 80.6 °F 87.1 °F 77.0 °F 89% 29.89 in 6.0 mi ENE 4.6 mph - N/A   Mostly Cloudy